星链-4582 (STARLINK-4582 )

导读

STARLINK-4582是美国太空探索技术公司(SpaceX)星链星座中的一颗卫星,于2022年8月19日发射升空,属于低轨互联网通信卫星,旨在为全球提供高速宽带互联网服务。星链项目通过部署大量低轨卫星,构建太空卫星互联网星座,以弥补地面网络覆盖不足,该卫星入轨后参与星座组网,服务全球用户。

基本信息
目录编号:
53569
目录名称:
STARLINK-4582
国际标识:
2022-101AU
轨道中心:
EARTH
卫星名称:
星链-4582
卫星全名:
星链-4582 (STARLINK-4582 )
卫星状态:
在轨 (已飞行1477 天)
发射日期:
2022-08-19 UTC
国别 :
美国 (US)
星等 :
--
轨道信息
数据来源 国际轨道数据
星历时间: 2026-09-03T22:07:58+0800
14小时前
查看轨道信息
半长轴: 6840.873km
偏心率: 0.0001002
轨道倾角: 53.161°
近地点辐角 65.547°
升交点赤经 322.898°
平近点角 294.564°
近地点: 462.05km
远地点: 463.422km
周期: 93.848分钟
每日圈数: 15.343893
详细信息
固有亮度:
5
最大亮度:
2.5
卫星平台:
Starlink v1.5
覆盖范围:
全球
运营商:
太空探索技术公司
运营商所在国:
美国
制造商(研发单位):
太空探索技术公司
制造商所在国:
美国
使用方式:
暂无
卫星简介
星链(Starlink)计划是由太空探索技术公司(SpaceX)提出的一个巨型低轨卫星互联网星座项目,计划在2019年至2024年间在太空搭建由约1.2万颗卫星组成的“星链”网络,其中1584颗将部署在地球上空550千米处的近地轨道,并从2020年开始工作。该卫星仍在工作。
2D轨道图
3D轨道图
轨道高度分析图
轨道倾角分析图
轨道综合分析图
查看轨道综合分析图
交会数据列表
事件ID 空间交会对象 最接近时刻(TCA) 交会距离 交会风险概率(CRP) 交会风险指数(CRI) 操作
CDM_260905-133905-356906-540121
2026-09-05T
13:39:40+0000
0.327 km
远距离
4.489775E-4 高风险 0.88
CDM_260830-161205-356906-666723
2026-08-30T
16:12:04+0000
1.562 km
极远距离
3.356367E-6 低风险 0.46
CDM_260903-075701-213805-356928
2026-09-03T
07:57:10+0000
2.571 km
极远距离
1.636974E-6 低风险 0.39
CDM_260904-002105-336405-356922
2026-09-04T
00:21:10+0000
2.428 km
极远距离
1.621453E-6 低风险 0.39
CDM_260903-133205-111505-356921
2026-09-03T
13:32:44+0000
2.791 km
极远距离
1.205533E-6 低风险 0.37